GW4812 Weather Reports


Display with metric or nautical units.
time (UTC)temp
F
wind
direction
speed
MPH
gust
MPH
rain 1hr
in
rain 24hr
in
rain mn
in
humidity
%
barometer
mb
20260504010052 49 171 0.0 1.0 0.00 0.00 0.00 60 1012.0
20260504005552 49 259 1.0 2.0 0.00 0.00 0.00 58 1012.0
20260504005053 49 252 1.0 2.0 0.00 0.00 0.00 55 1012.0
20260504004553 50 244 1.0 1.0 0.00 0.00 0.00 55 1012.0
20260504004052 51 269 0.0 1.0 0.00 0.00 0.00 55 1012.0
20260504003553 51 257 1.0 2.0 0.00 0.00 0.00 54 1012.0
20260504003053 52 261 1.0 2.0 0.00 0.00 0.00 52 1012.0
20260504002552 53 255 1.0 2.0 0.00 0.00 0.00 48 1012.0
20260504002053 53 242 0.0 0.0 0.00 0.00 0.00 45 1012.0
20260504001552 54 183 0.0 1.0 0.00 0.00 0.00 44 1012.0
20260504001053 55 282 0.0 1.0 0.00 0.00 0.00 43 1011.0
20260504000552 55 0 0.0 0.0 0.00 0.00 0.00 40 1011.0
20260504000053 56 266 0.0 1.0 0.00 0.00 0.00 39 1011.0
20260503235552 56 0 0.0 0.0 0.00 0.00 0.00 37 1011.0
20260503235052 57 0 0.0 0.0 0.00 0.00 0.00 37 1011.0
20260503234553 57 242 2.0 4.0 0.00 0.00 0.00 35 1011.0
20260503234052 57 196 1.0 3.0 0.00 0.00 0.00 36 1011.0
20260503233553 58 263 0.0 2.0 0.00 0.00 0.00 37 1011.0
20260503233053 58 220 0.0 2.0 0.00 0.00 0.00 35 1011.0
20260503232553 58 103 0.0 1.0 0.00 0.00 0.00 34 1011.0
20260503232052 58 200 1.0 2.0 0.00 0.00 0.00 35 1011.0
20260503231552 58 0 0.0 0.0 0.00 0.00 0.00 33 1011.0
20260503231052 58 85 0.0 1.0 0.00 0.00 0.00 34 1011.0
20260503230553 58 224 0.0 1.0 0.00 0.00 0.00 35 1011.0
20260503230053 58 187 0.0 1.0 0.00 0.00 0.00 35 1011.0
20260503225552 59 258 0.0 1.0 0.00 0.00 0.00 35 1011.0
20260503225052 59 203 1.0 2.0 0.00 0.00 0.00 32 1010.0
20260503224553 59 28 2.0 4.0 0.00 0.00 0.00 32 1011.0
20260503224052 59 206 2.0 4.0 0.00 0.00 0.00 31 1011.0
20260503223552 59 184 1.0 2.0 0.00 0.00 0.00 32 1011.0
20260503223052 59 170 0.0 2.0 0.00 0.00 0.00 32 1010.0
20260503222553 59 202 3.0 6.0 0.00 0.00 0.00 31 1010.0
20260503222053 60 200 1.0 2.0 0.00 0.00 0.00 32 1010.0
20260503221552 60 125 1.0 3.0 0.00 0.00 0.00 30 1010.0
20260503221052 60 69 2.0 4.0 0.00 0.00 0.00 30 1010.0
20260503220553 61 42 3.0 8.0 0.00 0.00 0.00 30 1010.0
20260503220052 61 161 1.0 2.0 0.00 0.00 0.00 30 1010.0
20260503215552 61 216 2.0 3.0 0.00 0.00 0.00 30 1010.0
20260503215052 61 228 2.0 6.0 0.00 0.00 0.00 31 1010.0
20260503214552 61 198 3.0 6.0 0.00 0.00 0.00 30 1010.0
20260503214052 61 267 0.0 1.0 0.00 0.00 0.00 30 1010.0
20260503213553 61 20 1.0 3.0 0.00 0.00 0.00 30 1010.0
20260503213052 62 276 1.0 2.0 0.00 0.00 0.00 30 1010.0
20260503212552 61 311 1.0 4.0 0.00 0.00 0.00 30 1010.0
20260503212052 61 255 2.0 3.0 0.00 0.00 0.00 32 1010.0
20260503211553 60 83 2.0 4.0 0.00 0.00 0.00 31 1010.0
20260503211052 61 136 2.0 4.0 0.00 0.00 0.00 31 1010.0
20260503210552 61 197 2.0 5.0 0.00 0.00 0.00 31 1010.0
20260503210053 61 249 3.0 4.0 0.00 0.00 0.00 30 1010.0
20260503205552 61 207 2.0 4.0 0.00 0.00 0.00 32 1010.0
20260503205052 60 223 2.0 4.0 0.00 0.00 0.00 33 1010.0
20260503204552 60 213 3.0 8.0 0.00 0.00 0.00 30 1010.0
20260503204052 59 193 4.0 9.0 0.00 0.00 0.00 31 1010.0
20260503203553 59 14 2.0 5.0 0.00 0.00 0.00 32 1010.0
20260503203053 59 340 2.0 4.0 0.00 0.00 0.00 31 1011.0
20260503202552 59 296 3.0 6.0 0.00 0.00 0.00 32 1010.0
20260503202052 59 207 2.0 6.0 0.00 0.00 0.00 31 1010.0
20260503201552 60 8 4.0 6.0 0.00 0.00 0.00 31 1011.0
20260503201054 59 239 2.0 4.0 0.00 0.00 0.00 31 1010.0
20260503200552 59 220 3.0 6.0 0.00 0.00 0.00 30 1011.0
20260503200052 59 126 0.0 2.0 0.00 0.00 0.00 33 1011.0
20260503195552 59 237 2.0 3.0 0.00 0.00 0.00 32 1011.0
20260503195053 59 80 2.0 5.0 0.00 0.00 0.00 32 1011.0
20260503194552 59 87 1.0 2.0 0.00 0.00 0.00 33 1011.0
20260503194054 59 262 3.0 6.0 0.00 0.00 0.00 32 1011.0
20260503193552 58 6 1.0 2.0 0.00 0.00 0.00 36 1011.0
20260503193052 58 229 5.0 11.0 0.00 0.00 0.00 33 1011.0
20260503192552 58 190 4.0 7.0 0.00 0.00 0.00 33 1011.0
20260503192052 58 87 2.0 5.0 0.00 0.00 0.00 34 1011.0
20260503191555 59 0 1.0 3.0 0.00 0.00 0.00 34 1011.0
20260503191052 58 190 2.0 5.0 0.00 0.00 0.00 34 1011.0
20260503190552 58 307 1.0 2.0 0.00 0.00 0.00 35 1011.0
20260503190052 57 203 2.0 4.0 0.00 0.00 0.00 34 1011.0
20260503185553 57 59 1.0 3.0 0.00 0.00 0.00 39 1011.0
20260503185052 56 257 2.0 6.0 0.00 0.00 0.00 37 1011.0
20260503184553 56 41 3.0 6.0 0.00 0.00 0.00 36 1011.0
20260503184052 56 0 2.0 3.0 0.00 0.00 0.00 38 1011.0
20260503183553 56 119 2.0 4.0 0.00 0.00 0.00 35 1011.0
20260503183052 56 66 4.0 7.0 0.00 0.00 0.00 35 1011.0
20260503182552 55 219 4.0 9.0 0.00 0.00 0.00 36 1011.0
20260503182052 55 285 3.0 5.0 0.00 0.00 0.00 37 1011.0
20260503181553 55 269 2.0 4.0 0.00 0.00 0.00 36 1011.0
20260503181052 55 353 2.0 5.0 0.00 0.00 0.00 37 1011.0
20260503180552 55 238 3.0 7.0 0.00 0.00 0.00 38 1011.0
20260503180052 54 354 4.0 8.0 0.00 0.00 0.00 39 1012.0
20260503175552 54 163 2.0 5.0 0.00 0.00 0.00 38 1011.0
20260503175052 55 233 4.0 6.0 0.00 0.00 0.00 38 1012.0
20260503174552 55 216 4.0 7.0 0.00 0.00 0.00 37 1011.0
20260503174052 55 41 3.0 5.0 0.00 0.00 0.00 37 1011.0
20260503173552 54 33 2.0 2.0 0.00 0.00 0.00 39 1012.0
20260503173053 54 323 3.0 6.0 0.00 0.00 0.00 41 1012.0
20260503172553 54 302 2.0 5.0 0.00 0.00 0.00 39 1012.0
20260503172052 53 236 2.0 2.0 0.00 0.00 0.00 41 1012.0
20260503171553 53 29 1.0 2.0 0.00 0.00 0.00 40 1012.0
20260503171052 53 60 1.0 2.0 0.00 0.00 0.00 41 1012.0
20260503170555 53 51 2.0 6.0 0.00 0.00 0.00 43 1012.0
20260503150552 49 212 1.0 3.0 0.00 0.00 0.00 46 1013.0
20260503130612 47 159 3.0 5.0 0.00 0.00 0.00 53 1012.0
20260503110553 43 322 0.0 1.0 0.00 0.00 0.00 63 1012.0
20260503081552 45 260 2.0 2.0 0.00 0.00 0.00 55 1011.0
20260503081053 45 306 1.0 2.0 0.00 0.00 0.00 55 1011.0
20260503080553 45 300 2.0 2.0 0.00 0.00 0.00 56 1011.0
20260503072552 46 138 0.0 0.0 0.00 0.00 0.00 56 1011.0
20260503072052 46 291 1.0 2.0 0.00 0.00 0.00 55 1010.0
20260503071552 46 269 0.0 1.0 0.00 0.00 0.00 56 1010.0
20260503071052 46 359 1.0 2.0 0.00 0.00 0.00 56 1010.0
20260503070552 46 238 1.0 1.0 0.00 0.00 0.00 55 1011.0
20260503055053 47 219 0.0 1.0 0.00 0.00 0.00 53 1011.0
20260503054554 47 210 1.0 1.0 0.00 0.00 0.00 53 1011.0
20260503054053 47 260 1.0 2.0 0.00 0.00 0.00 50 1011.0
20260503053553 48 0 0.0 0.0 0.00 0.00 0.00 51 1011.0
20260503053052 48 178 0.0 1.0 0.00 0.00 0.00 50 1011.0
20260503052552 48 354 1.0 2.0 0.00 0.00 0.00 50 1011.0
20260503052052 48 187 1.0 2.0 0.00 0.00 0.00 50 1011.0
20260503051552 48 47 0.0 0.0 0.00 0.00 0.00 50 1011.0
20260503051053 48 171 0.0 1.0 0.00 0.00 0.00 50 1011.0
20260503050552 48 323 0.0 1.0 0.00 0.00 0.00 50 1011.0
20260503050053 48 240 0.0 1.0 0.00 0.00 0.00 50 1011.0
20260503045552 48 282 2.0 2.0 0.00 0.00 0.00 49 1011.0
20260503045052 49 0 0.0 0.0 0.00 0.00 0.00 50 1011.0
20260503044552 49 61 1.0 1.0 0.00 0.00 0.00 48 1011.0
20260503044052 49 311 1.0 2.0 0.00 0.00 0.00 49 1011.0
20260503043552 49 77 1.0 1.0 0.00 0.00 0.00 48 1011.0
20260503043053 49 355 0.0 0.0 0.00 0.00 0.00 48 1011.0
20260503042552 49 238 1.0 3.0 0.00 0.00 0.00 49 1011.0
20260503042052 49 0 0.0 0.0 0.00 0.00 0.00 48 1011.0
20260503041552 49 321 2.0 2.0 0.00 0.00 0.00 48 1011.0
20260503041052 49 322 1.0 2.0 0.00 0.00 0.00 48 1011.0
20260503040553 49 300 1.0 1.0 0.00 0.00 0.00 48 1011.0
20260503040053 49 279 2.0 3.0 0.00 0.00 0.00 47 1011.0
20260503035553 49 281 0.0 1.0 0.00 0.00 0.00 48 1011.0
20260503035054 49 336 0.0 1.0 0.00 0.00 0.00 48 1011.0
20260503034552 49 90 0.0 0.0 0.00 0.00 0.00 48 1011.0
20260503034053 49 332 0.0 0.0 0.00 0.00 0.00 48 1011.0
20260503033552 49 229 1.0 2.0 0.00 0.00 0.00 48 1011.0
20260503033052 49 0 0.0 0.0 0.00 0.00 0.00 49 1011.0
20260503032553 49 68 0.0 1.0 0.00 0.00 0.00 50 1011.0
20260503032053 49 275 0.0 0.0 0.00 0.00 0.00 49 1011.0
20260503031552 49 296 0.0 0.0 0.00 0.00 0.00 49 1011.0
20260503031052 49 313 0.0 0.0 0.00 0.00 0.00 49 1011.0
20260503030553 50 270 0.0 1.0 0.00 0.00 0.00 48 1011.0
20260503030053 50 340 0.0 1.0 0.00 0.00 0.00 46 1011.0
20260503025552 50 334 0.0 1.0 0.00 0.00 0.00 48 1011.0
20260503025052 50 220 0.0 0.0 0.00 0.00 0.00 47 1011.0
20260503024552 50 14 0.0 1.0 0.00 0.00 0.00 47 1011.0
20260503024052 50 90 0.0 1.0 0.00 0.00 0.00 47 1011.0
20260503023553 50 286 1.0 2.0 0.00 0.00 0.00 46 1011.0
20260503023053 50 245 1.0 2.0 0.00 0.00 0.00 46 1011.0
20260503022552 50 161 0.0 1.0 0.00 0.00 0.00 47 1011.0
20260503022053 51 0 0.0 0.0 0.00 0.00 0.00 47 1011.0
20260503021552 51 203 1.0 1.0 0.00 0.00 0.00 47 1011.0
20260503021053 51 0 0.0 0.0 0.00 0.00 0.00 45 1011.0
20260503020552 51 0 0.0 0.0 0.00 0.00 0.00 47 1011.0
20260503020053 51 230 1.0 1.0 0.00 0.00 0.00 46 1011.0
20260503015552 51 303 1.0 1.0 0.00 0.00 0.00 46 1011.0
20260503015053 51 239 0.0 1.0 0.00 0.00 0.00 45 1011.0
20260503014552 51 0 0.0 0.0 0.00 0.00 0.00 44 1011.0
20260503014054 51 271 0.0 2.0 0.00 0.00 0.00 46 1012.0
20260503013552 51 256 1.0 2.0 0.00 0.00 0.00 46 1011.0
20260503013053 51 259 0.0 1.0 0.00 0.00 0.00 47 1011.0
20260503012553 51 292 0.0 1.0 0.00 0.00 0.00 49 1011.0
20260503012052 51 282 0.0 1.0 0.00 0.00 0.00 49 1011.0
20260503011552 51 260 1.0 2.0 0.00 0.00 0.00 50 1011.0
20260503011052 51 272 1.0 1.0 0.00 0.00 0.00 50 1011.0
20260503010553 51 257 0.0 1.0 0.00 0.00 0.00 50 1011.0